Terminal Aerodrome Forecast
Issued by NWS

Home | Current Version | Previous Version | Text Only | Print | Product List | Glossary On
Versions: 1 2 3 4 5 6 7 8 9 10 11 12 13 14 15 16 17 18 19 20 21 22 23 24 25 26 27 28 29 30 31 32 33 34 35 36 37 38 39 40 41
000
FTUS46 KPQR 291720
TAFONP
TAF
KONP 291720Z 2918/3018 34005KT 2SM BR OVC007
     FM292100 34010KT 6SM BR OVC007
     FM300300 33006KT 4SM BR OVC007
     FM301100 35003KT 1SM BR OVC005=

USA.gov is the U.S. government's official web portal to all federal, state and local government web resources and services.